Hourly Data Report for June 26, 2017

ATIKOKAN (AUT)
ONTARIO

48°45'40.000" N
91°37'41.000" W
389.30 m
6020LPQ
71747
WCH

Download Data

Hourly Data (June 2017)
Hourly Data Report for June 26, 2017
TIME
LST
Temp Definition
°C
Dew Point Definition
°C
Rel Hum Definition
%
Precip. Amount Definition
mm

Wind Dir Definition
10's deg

Wind Spd Definition
km/h
Visibility Definition
km
Stn Press Definition
kPa
Hmdx Definition


Wind Chill Definition


Weather Definition


00:00 8.6 7.3 91 0.0 27 1   97.25     LegendNANA
01:00 7.4 6.6 94 0.0 26 1   97.23     LegendNANA
02:00 6.2 5.5 95 0.0 28 3   97.22     LegendNANA
03:00 5.5 4.9 96 0.0 0 1   97.22     LegendNANA
04:00 4.8 4.3 96 0.0 0 1   97.23     LegendNANA
05:00 5.6 5.1 97 0.0 26 2   97.25     LegendNANA
06:00 8.3 7.6 95 0.3 23 2   97.27     LegendNANA
07:00 11.1 8.9 87 0.0 29 4   97.29     LegendNANA
08:00 12.9 8.5 74 0.0 31 8   97.27     LegendNANA
09:00 14.4 7.8 65 0.0 31 9   97.25     LegendNANA
10:00 16.6 9.4 63 0.0 32 9   97.21     LegendNANA
11:00 16.1 6.4 53 0.0 30 11   97.20     LegendNANA
12:00 17.8 6.2 47 0.0 31 10   97.14     LegendNANA
13:00 18.6 5.6 42 0.0 31 13   97.10     LegendNANA
14:00 18.0 4.3 40 0.0 32 16   97.08     LegendNANA
15:00 18.3 8.3 52 0.0 32 13   97.07     LegendNANA
16:00 17.1 8.2 56 0.0 33 8   97.07     LegendNANA
17:00 17.2 7.7 54 0.0 33 8   97.02     LegendNANA
18:00 16.7 8.0 56 0.2 33 4   97.02     LegendNANA
19:00 16.7 8.7 59 0.0 35 1   97.01     LegendNANA
20:00 13.4 9.7 78 0.0 1 2   96.99     LegendNANA
21:00 11.5 9.5 87 0.0 0 1   97.02     LegendNANA
22:00 9.5 8.1 91 0.0   0   97.00     LegendNANA
23:00 8.5 7.4 93 0.0   0   97.00     LegendNANA

Notes on Data Quality.

Legend

  • E = Estimated
  • M = Missing
  • NA = Not Available*
  • [empty] = Indicates an unobserved value
Date modified: